Location: *
(6.0000°S, 32.3997°W)
Time: 12:51:28
(UTC+00:00)

ATLAS 5 CENTAUR R/B - Pass Details

Date: 01 April 2020
Orbit: 543 x 1116 km, 63.4° (Epoch: 01 May)

Event Time Altitude Azimuth Distance (km) Brightness Sun altitude
Rises 22:14:54 0° 220° (SW) 2,869 5.5 -30.7°
Reaches altitude 10° 22:17:28 10° 231° (SW) 1,899 4.6 -31.3°
Enters shadow 22:19:56 24° 262° (W) 1,168 3.5 -32.0°
